Weather History for Pemba, Mozambique

Change the Weather History Date:

Saturday, February 2, 2013

  Actual Average Record
Temperature  
Mean Temperature 77 °F -  
Max Temperature 86 °F - - ()
Min Temperature 68 °F - - ()
Cooling Degree Days 12    
Growing Degree Days 27 (Base 50)    
Moisture  
Dew Point 76 °F    
Average Humidity 86    
Maximum Humidity 100    
Minimum Humidity 66    
Precipitation  
Precipitation 0.00 in - - ()
Sea Level Pressure  
Sea Level Pressure 29.79 in    
Wind  
Wind Speed 8 mph ()    
Max Wind Speed 16 mph    
Max Gust Speed -    
Visibility 9.6 miles    
Events      
T = Trace of Precipitation, MM = Missing Value Source: Averaged Metar Reports

Daily Weather History Graph

Daily Weather History Graph

Search for Another Location

Airport:

Trip Planner

Search our weather history database for the weather conditions in past years. The results will help you decide how hot, cold, wet, or windy it might be!

Date:

Astronomy

Feb. 02, 2013 Rise Set
Actual Time 5:12 AM CAT 5:51 PM CAT
Civil Twilight 4:49 AM CAT 6:13 PM CAT
Nautical Twilight 4:23 AM CAT 6:39 PM CAT
Astronomical Twilight 3:57 AM CAT 7:05 PM CAT
Moon 10:20 PM CAT (2/2) 10:19 AM CAT (2/2)
Length of Visible Light 13h 23m
Length of Day
12h 38m
Waning Gibbous, 63% of the Moon is Illuminated
Feb 2
Waning Gibbous
Feb 3
Last Quarter
Feb 10
New
Feb 17
First Quarter
Feb 25
Full

Hourly Weather History & Observations

Time (CAT) Temp. Heat Index Dew Point Humidity Pressure Visibility Wind Dir Wind Speed Gust Speed Precip Events Conditions
2:00 AM 75 °F - 75 °F 100% 29.77 in 12 mi NW 5.8 mph - -   Overcast
5:00 AM 75.2 °F - 75.2 °F 100% 29.80 in 6.2 mi NW 5.8 mph - N/A   Mostly Cloudy
7:00 AM 75.2 °F - 75.2 °F 100% 29.83 in 6.2 mi WNW 9.2 mph - N/A   Mostly Cloudy
8:00 AM 78 °F - 77 °F 94% 29.86 in 16 mi WNW 16.1 mph - -   Partly Cloudy
8:00 AM 77.0 °F - 77.0 °F 100% 29.83 in 6.2 mi WNW 16.1 mph - N/A   Mostly Cloudy
10:00 AM 80.6 °F 86.2 °F 75.2 °F 84% 29.83 in 6.2 mi NNW 11.5 mph - N/A   Mostly Cloudy
11:00 AM 84 °F - 74 °F 66% 29.83 in 16 mi NW 11.5 mph - -   Partly Cloudy
11:00 AM 84.2 °F 92.3 °F 75.2 °F 74% 29.80 in 6.2 mi NW 11.5 mph - N/A   Mostly Cloudy
12:00 PM 82.4 °F 90.9 °F 77.0 °F 84% 29.80 in 6.2 mi NW 11.5 mph - N/A   Mostly Cloudy
1:00 PM 82.4 °F 89.5 °F 75.2 °F 79% 29.77 in 6.2 mi NNW 9.2 mph - N/A   Mostly Cloudy
2:00 PM 85 °F - 76 °F 69% 29.75 in 16 mi NW 5.8 mph - -   Partly Cloudy
2:00 PM 86.0 °F 96.9 °F 77.0 °F 74% 29.74 in 6.2 mi NW 5.8 mph - N/A   Mostly Cloudy
3:00 PM 86.0 °F 93.4 °F 73.4 °F 66% 29.74 in 6.2 mi NW 5.8 mph - N/A   Mostly Cloudy
4:00 PM 86.0 °F 93.4 °F 73.4 °F 66% 29.74 in 6.2 mi North 6.9 mph - N/A   Mostly Cloudy
5:00 PM 82 °F - 78 °F 84% 29.76 in 16 mi NNE 9.2 mph - -   Partly Cloudy
5:00 PM 82.4 °F 92.4 °F 78.8 °F 89% 29.74 in 6.2 mi NNE 9.2 mph - N/A   Mostly Cloudy
7:00 PM 80.6 °F 88.1 °F 78.8 °F 94% 29.77 in 6.2 mi NNE 6.9 mph - N/A   Mostly Cloudy
8:00 PM 80 °F - 79 °F 94% 29.82 in 19 mi NNE 8.1 mph - -   Partly Cloudy
8:00 PM 80.6 °F 88.1 °F 78.8 °F 94% 29.80 in 6.2 mi NNE 8.1 mph - N/A   Mostly Cloudy
9:00 PM 80.6 °F 88.1 °F 78.8 °F 94% 29.80 in - North - - N/A   Mostly Cloudy
11:00 PM 79 °F - 76 °F 89% 29.84 in 16 mi East 9.2 mph - -   Partly Cloudy
11:00 PM 78.8 °F - 77.0 °F 94% 29.83 in - North - - N/A   Mostly Cloudy